Kosmos-2169

operational
NORAD ID: 21783 Int'l Des: 1991-077 Owner: UNKSR Country: SU
LEOCIRCULARPOLAR

Kosmos-2169について

説明を読み込み中...

リアルタイム位置

3D地球を読み込み中...

次回通過

高度履歴

Altitude vs Time

uPlot chart will show altitude changes over time

軌道要素

1 21783U 91077E 26063.04555637 .00000046 00000-0 18519-3 0 9994
2 21783 82.5992 275.8426 0017300 208.8298 151.1841 12.66312419585486
Epoch: Mar 4, 2026 • Age: 8 hours

現在のステータス

高度 1402.3 km
速度 7.16 km/s
衛星直下点 -46.89°S, 178.18°W
打ち上げ日 Nov 12, 1991
運用期間 34.3 years
タイプ other

技術仕様

分類 Payload
質量 225.00 kg
乾燥質量 225.00 kg
総質量 225.00 kg
長さ 1.60 m
直径 0.80 m
スパン 7.00 m
形状 Cyl + Ant
製造者 NPOPM
バスタイプ Strela-3
フェーズステータス In Orbit
所有者/国 UNKSR/SU

大規模コンステレーション

Loading constellations...